When you browse on this site, cookies collect data to enhance your experience and personalize the content and advertising you see.
Visit our Privacy Policy to learn more. By continuing to use the site, you agree to this use of cookies and data.
  • In Slovakia
  • List of Countries
  • For 7 days
  • Water Temperature
  • Satellite Maps
  • Weather Map
  • Weather Widgets
  • user-avatar
    Login

    Hourly Weather Satif

    Today, 21 May, Tuesday

    Time Temperature Precipitation Wind Pressure Humidity
    00:00 +12°C° 0 mm 3 mps 670 mmHg 65%
    01:00 +12°C° 0.1 mm 3 mps 670 mmHg 65%
    02:00 +14°C° 0.1 mm 2 mps 670 mmHg 65%
    03:00 +14°C° 0.1 mm 2 mps 670 mmHg 64%
    04:00 +14°C° 0.3 mm 2 mps 670 mmHg 65%
    05:00 +14°C° 0.3 mm 2 mps 670 mmHg 65%
    06:00 +14°C° 0 mm 2 mps 671 mmHg 58%
    07:00 +14°C° 0.6 mm 2 mps 671 mmHg 59%
    08:00 +14°C° 0.6 mm 2 mps 671 mmHg 60%
    09:00 +13°C° 0.6 mm 3 mps 671 mmHg 61%
    10:00 +14°C° 0.8 mm 2 mps 671 mmHg 61%
    11:00 +14°C° 0.8 mm 2 mps 671 mmHg 61%
    12:00 +14°C° 0.8 mm 2 mps 671 mmHg 61%
    13:00 +15°C° 0.5 mm 2 mps 671 mmHg 61%
    14:00 +15°C° 0.5 mm 2 mps 671 mmHg 62%
    15:00 +15°C° 0.5 mm 2 mps 671 mmHg 62%
    16:00 +15°C° 0.1 mm 2 mps 671 mmHg 64%
    17:00 +15°C° 0.1 mm 2 mps 671 mmHg 66%
    18:00 +15°C° 0.1 mm 2 mps 671 mmHg 68%
    19:00 +14°C° 0.2 mm 2 mps 671 mmHg 72%
    20:00 +14°C° 0.2 mm 2 mps 671 mmHg 75%
    21:00 +13°C° 0.2 mm 2 mps 672 mmHg 79%
    22:00 +13°C° 0.9 mm 2 mps 671 mmHg 81%
    23:00 +13°C° 0.9 mm 2 mps 671 mmHg 83%

    Tomorrow, 22 May, Wednesday

    Time Temperature Precipitation Wind Pressure Humidity
    00:00 +12°C° 0.9 mm 2 mps 671 mmHg 85%
    01:00 +12°C° 0.6 mm 2 mps 671 mmHg 87%
    02:00 +10°C° 0.6 mm 2 mps 670 mmHg 88%
    03:00 +10°C° 0.6 mm 2 mps 670 mmHg 90%
    04:00 +10°C° 0.3 mm 2 mps 671 mmHg 87%
    05:00 +12°C° 0.3 mm 2 mps 671 mmHg 85%
    06:00 +12°C° 0.3 mm 2 mps 671 mmHg 83%
    07:00 +14°C° 0.2 mm 2 mps 672 mmHg 76%
    08:00 +15°C° 0.2 mm 1 mps 672 mmHg 69%
    09:00 +18°C° 0.2 mm 1 mps 673 mmHg 61%
    10:00 +19°C° 0.4 mm 1 mps 673 mmHg 56%
    11:00 +19°C° 0.4 mm 2 mps 673 mmHg 50%
    12:00 +20°C° 0.4 mm 2 mps 674 mmHg 44%
    13:00 +20°C° 0.6 mm 2 mps 673 mmHg 45%
    14:00 +20°C° 0.6 mm 3 mps 673 mmHg 46%
    15:00 +20°C° 0.6 mm 3 mps 673 mmHg 47%
    16:00 +19°C° 0.5 mm 3 mps 673 mmHg 52%
    17:00 +18°C° 0.5 mm 3 mps 673 mmHg 56%
    18:00 +18°C° 0.5 mm 3 mps 673 mmHg 60%
    19:00 +16°C° 0.1 mm 3 mps 673 mmHg 66%
    20:00 +15°C° 0.1 mm 2 mps 673 mmHg 73%
    21:00 +14°C° 0.1 mm 1 mps 673 mmHg 79%
    22:00 +14°C° 0 mm 1 mps 673 mmHg 80%
    23:00 +13°C° 0 mm 1 mps 673 mmHg 82%

    Day after tomorrow, 23 May, Thursday

    Time Temperature Precipitation Wind Pressure Humidity
    00:00 +13°C° 0 mm 1 mps 673 mmHg 83%
    01:00 +12°C° 0 mm 1 mps 672 mmHg 84%
    02:00 +12°C° 0 mm 1 mps 672 mmHg 84%
    03:00 +12°C° 0 mm 1 mps 672 mmHg 85%
    04:00 +12°C° 0 mm 1 mps 672 mmHg 79%
    05:00 +12°C° 0 mm 0 mps 673 mmHg 74%
    06:00 +13°C° 0 mm 0 mps 673 mmHg 68%
    07:00 +15°C° 0 mm 0 mps 674 mmHg 60%
    08:00 +16°C° 0 mm 0 mps 674 mmHg 51%
    09:00 +18°C° 0 mm 0 mps 675 mmHg 42%
    10:00 +21°C° 0 mm 1 mps 675 mmHg 38%
    11:00 +21°C° 0 mm 2 mps 675 mmHg 35%
    12:00 +23°C° 0 mm 2 mps 675 mmHg 31%
    13:00 +24°C° 0 mm 2 mps 675 mmHg 32%
    14:00 +24°C° 0 mm 2 mps 674 mmHg 32%
    15:00 +24°C° 0 mm 3 mps 674 mmHg 32%
    16:00 +23°C° 0 mm 2 mps 674 mmHg 36%
    17:00 +23°C° 0 mm 2 mps 674 mmHg 41%
    18:00 +21°C° 0 mm 2 mps 673 mmHg 45%
    19:00 +19°C° 0 mm 2 mps 673 mmHg 50%
    20:00 +18°C° 0 mm 2 mps 673 mmHg 56%
    21:00 +16°C° 0 mm 2 mps 673 mmHg 62%
    22:00 +16°C° 0 mm 2 mps 672 mmHg 63%
    23:00 +16°C° 0 mm 1 mps 672 mmHg 65%

    24 May, Friday

    Time Temperature Precipitation Wind Pressure Humidity
    00:00 +15°C° 0 mm 1 mps 671 mmHg 66%
    01:00 +15°C° 0 mm 1 mps 671 mmHg 66%
    02:00 +15°C° 0 mm 1 mps 671 mmHg 65%
    03:00 +15°C° 0 mm 1 mps 670 mmHg 65%
    04:00 +16°C° 0 mm 1 mps 671 mmHg 61%
    05:00 +17°C° 0 mm 2 mps 671 mmHg 58%
    06:00 +18°C° 0 mm 2 mps 671 mmHg 54%
    07:00 +20°C° 0.1 mm 4 mps 671 mmHg 51%
    08:00 +22°C° 0.1 mm 5 mps 672 mmHg 47%
    09:00 +23°C° 0.1 mm 7 mps 672 mmHg 44%
    10:00 +24°C° 0 mm 6 mps 672 mmHg 41%
    11:00 +24°C° 0 mm 6 mps 672 mmHg 39%
    12:00 +26°C° 0 mm 6 mps 671 mmHg 36%
    13:00 +26°C° 0 mm 5 mps 671 mmHg 36%
    14:00 +26°C° 0 mm 4 mps 671 mmHg 36%
    15:00 +26°C° 0 mm 4 mps 670 mmHg 37%
    16:00 +25°C° 0.1 mm 3 mps 670 mmHg 43%
    17:00 +24°C° 0.1 mm 3 mps 669 mmHg 49%
    18:00 +21°C° 0.1 mm 2 mps 669 mmHg 56%
    19:00 +21°C° 0.5 mm 2 mps 669 mmHg 59%
    20:00 +20°C° 0.5 mm 2 mps 669 mmHg 62%
    21:00 +19°C° 0.5 mm 2 mps 669 mmHg 65%
    22:00 +18°C° 0.4 mm 2 mps 669 mmHg 67%
    23:00 +19°C° 0.4 mm 1 mps 668 mmHg 68%

    25 May, Saturday

    Time Temperature Precipitation Wind Pressure Humidity
    00:00 +19°C° 0.4 mm 1 mps 668 mmHg 69%
    01:00 +18°C° 1.7 mm 1 mps 667 mmHg 73%
    02:00 +17°C° 1.7 mm 2 mps 667 mmHg 77%
    03:00 +16°C° 1.7 mm 2 mps 666 mmHg 80%
    04:00 +16°C° 1.2 mm 2 mps 667 mmHg 80%
    05:00 +16°C° 1.2 mm 2 mps 667 mmHg 80%
    06:00 +16°C° 1.2 mm 2 mps 667 mmHg 80%
    07:00 +17°C° 1.4 mm 2 mps 668 mmHg 75%
    08:00 +18°C° 1.4 mm 2 mps 668 mmHg 70%
    09:00 +19°C° 1.4 mm 2 mps 669 mmHg 65%
    10:00 +19°C° 2.5 mm 2 mps 669 mmHg 65%
    11:00 +19°C° 2.5 mm 2 mps 668 mmHg 65%
    12:00 +19°C° 2.5 mm 2 mps 668 mmHg 65%
    13:00 +19°C° 3.2 mm 2 mps 668 mmHg 68%
    14:00 +18°C° 3.2 mm 2 mps 668 mmHg 71%
    15:00 +18°C° 3.2 mm 2 mps 668 mmHg 74%
    16:00 +17°C° 3.8 mm 2 mps 668 mmHg 77%
    17:00 +17°C° 3.8 mm 2 mps 668 mmHg 81%
    18:00 +16°C° 3.8 mm 2 mps 668 mmHg 84%
    19:00 +16°C° 1.1 mm 2 mps 668 mmHg 86%
    20:00 +14°C° 1.1 mm 3 mps 668 mmHg 87%
    21:00 +14°C° 1.1 mm 3 mps 669 mmHg 89%
    22:00 +13°C° 0.1 mm 3 mps 668 mmHg 91%
    23:00 +13°C° 0.1 mm 3 mps 668 mmHg 92%

    26 May, Sunday

    Time Temperature Precipitation Wind Pressure Humidity
    00:00 +12°C° 0.1 mm 3 mps 668 mmHg 94%
    01:00 +13°C° 0.3 mm 2 mps 668 mmHg 93%
    02:00 +13°C° 0.3 mm 2 mps 667 mmHg 92%
    03:00 +13°C° 0.3 mm 2 mps 667 mmHg 91%
    04:00 +12°C° 0.1 mm 3 mps 667 mmHg 91%
    05:00 +12°C° 0.1 mm 3 mps 667 mmHg 90%
    06:00 +12°C° 0.1 mm 3 mps 667 mmHg 89%
    07:00 +13°C° 0 mm 3 mps 668 mmHg 83%
    08:00 +14°C° 0 mm 3 mps 668 mmHg 78%
    09:00 +16°C° 0 mm 3 mps 669 mmHg 73%
    10:00 +16°C° 0.2 mm 3 mps 669 mmHg 71%
    11:00 +17°C° 0.2 mm 4 mps 669 mmHg 69%
    12:00 +18°C° 0.2 mm 4 mps 669 mmHg 66%
    13:00 +17°C° 0.1 mm 4 mps 669 mmHg 70%
    14:00 +15°C° 0.1 mm 5 mps 668 mmHg 73%
    15:00 +15°C° 0.1 mm 5 mps 668 mmHg 76%
    16:00 +14°C° 0 mm 5 mps 668 mmHg 79%
    17:00 +14°C° 0 mm 4 mps 668 mmHg 81%
    18:00 +13°C° 0 mm 4 mps 668 mmHg 83%
    19:00 +13°C° 0.1 mm 4 mps 668 mmHg 85%
    20:00 +13°C° 0.1 mm 3 mps 669 mmHg 87%
    21:00 +12°C° 0.1 mm 3 mps 669 mmHg 89%
    22:00 +12°C° 0.3 mm 3 mps 669 mmHg 89%
    23:00 +12°C° 0.3 mm 3 mps 669 mmHg 90%
    Show more